Weather Roundup
Issued by NWS Corpus Christi, TX

Home | Current Version | Previous Version | Text Only | Print | Product List | Glossary On
Versions: 1 2 3 4 5 6 7 8 9 10 11 12 13 14 15 16 17 18 19 20 21 22 23 24 25 26 27 28 29 30 31 32 33 34 35 36 37 38 39 40 41 42 43 44 45 46 47 48 49 50
000
ASUS44 KCRP 270410
HRRCRP

SOUTH TEXAS REGIONAL WEATHER ROUNDUP
NATIONAL WEATHER SERVICE CORPUS CHRISTI TX
1100 PM CDT THU MAR 26 2015


TXZ229>244-270500-
...CORPUS CHRISTI AREA OBSERVATIONS...

CITY           SKY/WX    TMP DP  RH WIND       PRES   REMARKS
CORPUS CHRISTI CLOUDY    63  51  65 N14       30.10F
NAS CORPUS CHR CLOUDY    65  51  60 N14G25    30.10F
ROCKPORT       MOCLDY    63  48  58 N10       30.13R
KINGSVILLE NAS MOCLDY    60  55  83 NW7       30.14R
ALICE          MOCLDY    59  51  75 N5        30.14R
FALFURRIAS     PTCLDY    60  53  75 NW5       30.14R
$$

...VICTORIA AREA OBSERVATIONS...

CITY           SKY/WX    TMP DP  RH WIND       PRES   REMARKS
VICTORIA       CLEAR     59  47  64 N10       30.13R
BEEVILLE       FAIR      59  49  71 N7        30.15R
PLEASANTON     CLEAR     59  40  49 N6        30.18R
SAN ANTONIO    CLEAR     55  37  50 N5        30.19R
$$

...LAREDO AREA OBSERVATIONS...

CITY           SKY/WX    TMP DP  RH WIND       PRES   REMARKS
LAREDO         PTCLDY    61  49  64 NW5       30.19R
COTULLA        PTCLDY    62  44  51 N9        30.18R
DEL RIO        CLEAR     58  40  51 N6        30.20R
MCALLEN        PTCLDY    63  53  70 NW5       30.15R
HEBBRONVILLE   NOT AVBL
$$

...OTHER TEXAS OBSERVATIONS...

CITY           SKY/WX    TMP DP  RH WIND       PRES   REMARKS
BROWNSVILLE    PTCLDY    62  52  69 N8G18     30.11R
HOUSTON        PTCLDY    57  49  74 NW6       30.10R
COL. STATION   CLEAR     55  38  52 N8        30.14R
AUSTIN         CLEAR     52  36  54 N9        30.18R
WACO           CLEAR     52  36  54 NW8       30.18R
FORT WORTH     CLEAR     52  32  46 NW7       30.15S
WICHITA FALLS  CLEAR     45  36  70 S9        30.13F
LUBBOCK        CLEAR     50  19  29 SW3       30.19S
EL PASO        CLEAR     58  26  29 S7        30.23R
$$

...MARINE OBSERVATIONS...

STATION/POSITION TIME  SKY/WX   TEMP    WIND        PRES    VSBY  WAVE   SWELL
                                AIR SEA DIR/SP/G                  HT/PER HT/PER
                 (UTC)          (F)     (DEG/KT/KT) (MB)    (MI)  (FT/S) (FT/S)
PORT ARANSAS     0300            63 65  270/  3/  4 1020.5R
BUOY 90 E PORT A 0400            66 70  340/ 17/ 21 1018.9R         5/ 5
BUOY 45 SE BAFFI 0400            66 71  360/ 23/ 27 1017.9R         7/ 7
BUOY 200 E PT IS 0400            71 73  360/ 19/ 21 1014.7R         5/ 5
BUOY 15 E GALVES 0400            62 65  360/ 21/ 27 1016.8R         4/ 4
$$


USA.gov is the U.S. government's official web portal to all federal, state and local government web resources and services.